New Bern, NC

6:47 AM EST on November 23, 2017 (GMT -0500)
Craven County Regional

Weather History for KEWN - May, 2014

Change the Weather History Date:

Sunday, May 4, 2014

  Actual Average Record
Temperature  
Mean Temperature 71 °F 66 °F  
Max Temperature 83 °F 78 °F 92 °F (2012)
Min Temperature 58 °F 55 °F 44 °F (1963)
Degree Days  
Heating Degree Days 0 2  
Month to date heating degree days 0 9  
Since 1 July heating degree days 2632 2676  
Cooling Degree Days 6 4  
Month to date cooling degree days 22 13  
Year to date cooling degree days 107 83  
Growing Degree Days 20 (Base 50)    
Moisture  
Dew Point 51 °F    
Average Humidity 53    
Maximum Humidity 78    
Minimum Humidity 28    
Precipitation  
Precipitation 0.00 in 0.12 in 1.17 in (1994)
Month to date precipitation 0.02 0.45  
Year to date precipitation 15.98 15.69  
Snow  
Snow 0.00 in - - ()
Month to date snowfall 0.0  
Since 1 July snowfall 14.0  
Snow Depth 0.00 in    
Sea Level Pressure  
Sea Level Pressure 29.92 in    
Wind  
Wind Speed 7 mph (WSW)    
Max Wind Speed 16 mph    
Max Gust Speed 21 mph    
Visibility 10 miles    
Events      
T = Trace of Precipitation, MM = Missing Value Source: NWS Daily Summary

Daily Weather History Graph

Daily Weather History Graph

Search for Another Location

Airport or City:

Trip Planner

Search our weather history database for the weather conditions in past years. The results will help you decide how hot, cold, wet, or windy it might be!

Date:

Astronomy

May. 04, 2014 Rise Set
Actual Time 6:14 AM EDT 7:56 PM EDT
Civil Twilight 5:46 AM EDT 8:23 PM EDT
Nautical Twilight 5:14 AM EDT 8:56 PM EDT
Astronomical Twilight 4:39 AM EDT 9:31 PM EDT
Moon 10:37 AM EDT (5/4) No Moon Set
Length of Visible Light 14h 36m
Length of Day
13h 42m
Waxing Crescent, 27% of the Moon is Illuminated
May 4
Waxing Crescent
May 6
First Quarter
May 14
Full
May 21
Last Quarter
May 28
New

Hourly Weather History & Observations

Time (EDT) Temp. Dew Point Humidity Pressure Visibility Wind Dir Wind Speed Gust Speed Precip Events Conditions
12:54 AM 62.1 °F 55.0 °F 78% 29.94 in 10.0 mi WSW 5.8 mph - N/A   Clear
1:54 AM 60.1 °F 54.0 °F 80% 29.94 in 10.0 mi SW 4.6 mph - N/A   Clear
2:54 AM 59.0 °F 52.0 °F 78% 29.94 in 10.0 mi SW 4.6 mph - N/A   Clear
3:54 AM 59.0 °F 51.1 °F 75% 29.94 in 10.0 mi SW 5.8 mph - N/A   Clear
4:54 AM 59.0 °F 48.9 °F 69% 29.94 in 10.0 mi West 5.8 mph - N/A   Clear
5:54 AM 60.1 °F 48.0 °F 64% 29.95 in 10.0 mi WNW 6.9 mph - N/A   Clear
6:54 AM 60.1 °F 48.0 °F 64% 29.97 in 10.0 mi WNW 5.8 mph - N/A   Clear
7:54 AM 63.0 °F 50.0 °F 63% 29.99 in 10.0 mi Calm Calm - N/A   Clear
8:54 AM 66.9 °F 50.0 °F 54% 29.99 in 10.0 mi NW 4.6 mph - N/A   Clear
9:54 AM 72.0 °F 48.9 °F 44% 30.00 in 10.0 mi North 5.8 mph - N/A   Clear
10:54 AM 75.0 °F 50.0 °F 41% 30.00 in 10.0 mi Variable 6.9 mph - N/A   Clear
11:54 AM 78.1 °F 48.0 °F 35% 29.98 in 10.0 mi West 9.2 mph - N/A   Clear
12:54 PM 79.0 °F 46.9 °F 32% 29.96 in 10.0 mi West 10.4 mph 16.1 mph N/A   Clear
1:54 PM 81.0 °F 48.0 °F 31% 29.93 in 10.0 mi WNW 6.9 mph - N/A   Clear
2:54 PM 82.0 °F 48.0 °F 30% 29.90 in 10.0 mi WNW 5.8 mph - N/A   Clear
3:54 PM 82.0 °F 46.9 °F 29% 29.87 in 10.0 mi West 12.7 mph 16.1 mph N/A   Clear
4:54 PM 82.0 °F 48.9 °F 31% 29.86 in 10.0 mi West 13.8 mph 20.7 mph N/A   Clear
5:54 PM 82.9 °F 50.0 °F 32% 29.85 in 10.0 mi West 8.1 mph - N/A   Clear
6:54 PM 78.1 °F 54.0 °F 43% 29.85 in 10.0 mi South 9.2 mph - N/A   Clear
7:54 PM 73.0 °F 54.0 °F 51% 29.86 in 10.0 mi South 10.4 mph - N/A   Clear
8:54 PM 69.1 °F 55.0 °F 61% 29.87 in 10.0 mi SSW 6.9 mph - N/A   Clear
9:54 PM 69.1 °F 55.9 °F 63% 29.88 in 10.0 mi SW 8.1 mph - N/A   Clear
10:54 PM 69.1 °F 54.0 °F 58% 29.89 in 10.0 mi SW 8.1 mph - N/A   Clear
11:54 PM 68.0 °F 52.0 °F 56% 29.89 in 10.0 mi WSW 5.8 mph - N/A   Clear